| time (UTC) | temp C | wind direction | speed KPH | gust KPH | rain 1hr cm | rain 24hr cm | rain mn cm | humidity % | barometer mb |
| 20260831041559 | 8 | 0 | 0.0 | 1.6 | 0.00 | 0.00 | 0.00 | 88 | 1018.8 |
| 20260831040052 | 8 | 292 | 0.0 | 3.2 | 0.00 | 0.00 | 0.00 | 88 | 1018.8 |
| 20260831034557 | 8 | 0 | 1.6 | 4.8 | 0.00 | 0.00 | 0.00 | 88 | 1018.8 |
| 20260831033049 | 8 | 290 | 3.2 | 6.4 | 0.00 | 0.00 | 0.00 | 88 | 1018.8 |
| 20260831031556 | 8 | 224 | 1.6 | 6.4 | 0.00 | 0.00 | 0.00 | 88 | 1018.9 |
| 20260831024548 | 9 | 0 | 0.0 | 0.0 | 0.00 | 0.00 | 0.00 | 87 | 1018.8 |
| 20260831023055 | 9 | 152 | 0.0 | 8.0 | 0.00 | 0.00 | 0.00 | 87 | 1018.9 |
| 20260831021553 | 10 | 0 | 0.0 | 8.0 | 0.00 | 0.00 | 0.00 | 88 | 1018.8 |
| 20260831020052 | 10 | 150 | 0.0 | 4.8 | 0.00 | 0.00 | 0.00 | 88 | 1018.8 |
| 20260831014602 | 10 | 150 | 3.2 | 6.4 | 0.00 | 0.00 | 0.00 | 87 | 1018.7 |
| 20260831013057 | 10 | 0 | 3.2 | 6.4 | 0.00 | 0.00 | 0.00 | 87 | 1018.8 |
| 20260831011615 | 10 | 302 | 0.0 | 4.8 | 0.00 | 0.00 | 0.00 | 87 | 1018.7 |
| 20260831010058 | 10 | 302 | 0.0 | 6.4 | 0.00 | 0.00 | 0.00 | 86 | 1018.8 |
| 20260831004606 | 10 | 311 | 3.2 | 6.4 | 0.00 | 0.00 | 0.00 | 86 | 1018.8 |
| 20260831003104 | 10 | 298 | 4.8 | 6.4 | 0.00 | 0.00 | 0.00 | 86 | 1018.9 |
| 20260831001606 | 10 | 295 | 4.8 | 6.4 | 0.00 | 0.00 | 0.00 | 85 | 1019.0 |
| 20260831000058 | 11 | 340 | 0.0 | 4.8 | 0.00 | 0.00 | 0.00 | 85 | 1019.0 |
| 20260830234555 | 11 | 0 | 0.0 | 3.2 | 0.00 | 0.00 | 0.00 | 85 | 1018.8 |
| 20260830233055 | 12 | 352 | 1.6 | 6.4 | 0.00 | 0.00 | 0.00 | 85 | 1018.9 |
| 20260830231608 | 11 | 323 | 1.6 | 4.8 | 0.00 | 0.00 | 0.00 | 86 | 1019.0 |
| 20260830230057 | 11 | 321 | 3.2 | 8.0 | 0.00 | 0.00 | 0.00 | 86 | 1019.2 |
| 20260830224608 | 11 | 308 | 3.2 | 6.4 | 0.00 | 0.00 | 0.00 | 85 | 1019.2 |
| 20260830223054 | 11 | 319 | 1.6 | 6.4 | 0.00 | 0.00 | 0.00 | 85 | 1019.0 |
| 20260830221548 | 11 | 307 | 3.2 | 6.4 | 0.00 | 0.00 | 0.00 | 85 | 1018.9 |
| 20260830214604 | 12 | 302 | 1.6 | 6.4 | 0.00 | 0.00 | 0.00 | 85 | 1019.2 |
| 20260830213053 | 12 | 302 | 1.6 | 6.4 | 0.00 | 0.00 | 0.00 | 86 | 1018.9 |
| 20260830204559 | 12 | 0 | 0.0 | 4.8 | 0.00 | 0.00 | 0.00 | 84 | 1018.9 |
| 20260830203056 | 12 | 301 | 0.0 | 3.2 | 0.00 | 0.00 | 0.00 | 83 | 1018.8 |
| 20260830201552 | 12 | 301 | 1.6 | 4.8 | 0.00 | 0.00 | 0.00 | 83 | 1018.7 |
| 20260830200050 | 12 | 301 | 1.6 | 3.2 | 0.00 | 0.00 | 0.00 | 82 | 1018.9 |
| 20260830194601 | 13 | 301 | 1.6 | 4.8 | 0.00 | 0.00 | 0.00 | 81 | 1018.7 |
| 20260830193055 | 13 | 301 | 3.2 | 4.8 | 0.00 | 0.00 | 0.00 | 79 | 1018.6 |
| 20260830191551 | 14 | 301 | 3.2 | 4.8 | 0.00 | 0.00 | 0.00 | 78 | 1018.7 |
| 20260830190051 | 15 | 0 | 0.0 | 4.8 | 0.00 | 0.00 | 0.00 | 76 | 1018.6 |
| 20260830184559 | 16 | 301 | 1.6 | 8.0 | 0.00 | 0.00 | 0.00 | 75 | 1018.4 |
| 20260830183054 | 16 | 327 | 3.2 | 11.3 | 0.00 | 0.00 | 0.00 | 75 | 1018.4 |
| 20260830181551 | 16 | 310 | 4.8 | 8.0 | 0.00 | 0.00 | 0.00 | 76 | 1018.2 |
| 20260830180103 | 17 | 267 | 3.2 | 6.4 | 0.00 | 0.00 | 0.00 | 73 | 1018.1 |
| 20260830174556 | 18 | 0 | 0.0 | 1.6 | 0.00 | 0.00 | 0.00 | 70 | 1017.9 |
| 20260830173053 | 20 | 267 | 0.0 | 6.4 | 0.00 | 0.00 | 0.00 | 68 | 1017.8 |
| 20260830171557 | 21 | 262 | 4.8 | 6.4 | 0.00 | 0.00 | 0.00 | 64 | 1017.7 |
| 20260830170101 | 22 | 0 | 0.0 | 3.2 | 0.00 | 0.00 | 0.00 | 58 | 1017.6 |
| 20260830164601 | 23 | 261 | 1.6 | 4.8 | 0.00 | 0.00 | 0.00 | 56 | 1017.5 |
| 20260830163100 | 23 | 261 | 4.8 | 11.3 | 0.00 | 0.00 | 0.00 | 53 | 1017.4 |
| 20260830161600 | 24 | 254 | 9.7 | 16.1 | 0.00 | 0.00 | 0.00 | 49 | 1017.5 |
| 20260830160053 | 25 | 257 | 11.3 | 16.1 | 0.00 | 0.00 | 0.00 | 48 | 1017.4 |
| 20260830154601 | 26 | 257 | 8.0 | 17.7 | 0.00 | 0.00 | 0.00 | 47 | 1017.3 |
| 20260830153059 | 26 | 261 | 12.9 | 22.5 | 0.00 | 0.00 | 0.00 | 45 | 1017.4 |
| 20260830151608 | 26 | 259 | 12.9 | 20.9 | 0.00 | 0.00 | 0.00 | 45 | 1017.5 |
| 20260830150055 | 26 | 250 | 16.1 | 20.9 | 0.00 | 0.00 | 0.00 | 44 | 1017.5 |
| 20260830144552 | 26 | 252 | 16.1 | 22.5 | 0.00 | 0.00 | 0.00 | 40 | 1017.4 |
| 20260830143110 | 26 | 250 | 17.7 | 25.7 | 0.00 | 0.00 | 0.00 | 42 | 1017.7 |
| 20260830141551 | 26 | 265 | 17.7 | 25.7 | 0.00 | 0.00 | 0.00 | 42 | 1017.7 |
| 20260830140051 | 27 | 257 | 12.9 | 25.7 | 0.00 | 0.00 | 0.00 | 41 | 1017.6 |
| 20260830134555 | 27 | 265 | 17.7 | 32.2 | 0.00 | 0.00 | 0.00 | 42 | 1017.8 |
| 20260830133051 | 26 | 270 | 19.3 | 27.4 | 0.00 | 0.00 | 0.00 | 41 | 1017.8 |
| 20260830131603 | 26 | 242 | 16.1 | 27.4 | 0.00 | 0.00 | 0.00 | 40 | 1017.8 |
| 20260830130107 | 26 | 251 | 22.5 | 37.0 | 0.00 | 0.00 | 0.00 | 35 | 1017.9 |
| 20260830124555 | 26 | 241 | 22.5 | 32.2 | 0.00 | 0.00 | 0.00 | 38 | 1017.9 |
| 20260830123108 | 26 | 249 | 14.5 | 27.4 | 0.00 | 0.00 | 0.00 | 39 | 1017.9 |
| 20260830121605 | 26 | 268 | 12.9 | 29.0 | 0.00 | 0.00 | 0.00 | 40 | 1018.0 |
| 20260830120058 | 26 | 273 | 16.1 | 25.7 | 0.00 | 0.00 | 0.00 | 43 | 1018.2 |
| 20260830114610 | 26 | 241 | 22.5 | 32.2 | 0.00 | 0.00 | 0.00 | 41 | 1018.4 |
| 20260830113100 | 26 | 235 | 17.7 | 29.0 | 0.00 | 0.00 | 0.00 | 42 | 1018.5 |
| 20260830111601 | 25 | 246 | 20.9 | 29.0 | 0.00 | 0.00 | 0.00 | 40 | 1018.6 |
| 20260830110058 | 25 | 244 | 14.5 | 22.5 | 0.00 | 0.00 | 0.00 | 45 | 1018.7 |
| 20260830104555 | 25 | 244 | 11.3 | 25.7 | 0.00 | 0.00 | 0.00 | 44 | 1018.8 |
| 20260830103053 | 25 | 242 | 9.7 | 17.7 | 0.00 | 0.00 | 0.00 | 46 | 1018.9 |
| 20260830101603 | 25 | 221 | 11.3 | 19.3 | 0.00 | 0.00 | 0.00 | 46 | 1018.8 |
| 20260830100058 | 25 | 250 | 9.7 | 24.1 | 0.00 | 0.00 | 0.00 | 46 | 1018.9 |
| 20260830094552 | 25 | 257 | 9.7 | 20.9 | 0.00 | 0.00 | 0.00 | 47 | 1019.1 |
| 20260830093050 | 24 | 198 | 11.3 | 16.1 | 0.00 | 0.00 | 0.00 | 55 | 1019.2 |
| 20260830091557 | 23 | 148 | 4.8 | 22.5 | 0.00 | 0.00 | 0.00 | 56 | 1019.1 |
| 20260830090051 | 23 | 221 | 4.8 | 17.7 | 0.00 | 0.00 | 0.00 | 56 | 1019.2 |
| 20260830084609 | 23 | 231 | 3.2 | 16.1 | 0.00 | 0.00 | 0.00 | 62 | 1019.3 |
| 20260830083058 | 22 | 134 | 6.4 | 14.5 | 0.00 | 0.00 | 0.00 | 62 | 1019.4 |
| 20260830081604 | 21 | 142 | 8.0 | 16.1 | 0.00 | 0.00 | 0.00 | 63 | 1019.4 |
| 20260830080052 | 21 | 104 | 4.8 | 9.7 | 0.00 | 0.00 | 0.00 | 65 | 1019.3 |
| 20260830074604 | 21 | 0 | 3.2 | 9.7 | 0.00 | 0.00 | 0.00 | 65 | 1019.4 |
| 20260830073104 | 21 | 212 | 1.6 | 6.4 | 0.00 | 0.00 | 0.00 | 66 | 1019.3 |
| 20260830071600 | 21 | 182 | 0.0 | 4.8 | 0.00 | 0.00 | 0.00 | 68 | 1019.3 |
| 20260830070053 | 20 | 182 | 0.0 | 4.8 | 0.00 | 0.00 | 0.00 | 71 | 1019.2 |
| 20260830064551 | 19 | 198 | 0.0 | 4.8 | 0.00 | 0.00 | 0.00 | 75 | 1019.2 |
| 20260830063100 | 18 | 0 | 0.0 | 4.8 | 0.00 | 0.00 | 0.00 | 79 | 1019.2 |
| 20260830061602 | 17 | 0 | 0.0 | 3.2 | 0.00 | 0.00 | 0.00 | 86 | 1019.2 |
| 20260830060055 | 16 | 0 | 1.6 | 3.2 | 0.00 | 0.00 | 0.00 | 88 | 1019.2 |
| 20260830054557 | 15 | 0 | 0.0 | 3.2 | 0.00 | 0.00 | 0.00 | 90 | 1019.2 |
| 20260830053052 | 14 | 0 | 0.0 | 4.8 | 0.00 | 0.00 | 0.00 | 90 | 1019.2 |
| 20260830051551 | 13 | 0 | 0.0 | 3.2 | 0.00 | 0.00 | 0.00 | 91 | 1019.2 |
| 20260830044553 | 12 | 0 | 0.0 | 1.6 | 0.00 | 0.00 | 0.00 | 90 | 1019.2 |
| 20260830043049 | 11 | 0 | 0.0 | 0.0 | 0.00 | 0.00 | 0.00 | 90 | 1019.2 |